Flag for Canada Weather past 2 weeks in Whistler, British Columbia, Canada

Now
43 °F

Quite cool.


Feels Like: 43 °F
Forecast: 34 / 43 °F
Wind: 1 mph from North

Location: Squamish Airport


UV Index: 0 (Low)

Visibility: N/A


Pressure: 30.02 "Hg

Humidity: 96%

Dew point: 42 °F

Location of WhistlerLocation

Historic Weather in Whistler

°F

Whistler temperature yesterday

Maximum temperature yesterday: 54 °F (at 12:00 PM)
Minimum temperature yesterday: 39 °F (at 7:00 AM)
Average temperature yesterday: 48 °F

Past Weeks' High & Low Weather Summary

 TemperatureHumidityPressure
High67 °F (Apr 12, 5:00 PM)100% (Apr 2, 5:00 AM)30.36 "Hg (Apr 2, 5:00 AM)
Low31 °F (Apr 2, 5:00 AM)15% (Apr 12, 5:00 PM)29.77 "Hg (Apr 1, 5:00 PM)
Average47 °F76%30.06 "Hg
* Reported Apr 1 3:00 AM — Apr 16 3:00 AM, Whistler, Weather by CustomWeather, © 2014

Note: Actual official high and low records may vary slightly from our data, if they occured in-between our weather recording intervals... More about our weather records

Advertising

Historic Weather Conditions — Data for Previous 24 hours

 ConditionsComfort  
Time TempWeatherWind HumidityBarometerVisibility
3:00 AM
Apr 16
44 °FQuite cool.1 mph94%30.03 "HgN/A
2:00 AM44 °FQuite cool.No wind95%30.03 "HgN/A
1:00 AM44 °FQuite cool.1 mph96%30.04 "HgN/A
12:00 AM45 °FQuite cool.2 mph93%30.04 "HgN/A
11:00 PM
Apr 15
45 °FCool.1 mph89%30.04 "HgN/A
10:00 PM47 °FCool.6 mph85%30.04 "HgN/A
9:00 PM51 °FCool.6 mph71%30.03 "HgN/A
8:00 PM52 °FCool.3 mph66%30.03 "HgN/A
7:00 PM53 °FCool.7 mph61%30.03 "HgN/A
6:00 PM53 °FCool.10 mph59%30.04 "HgN/A
5:00 PM53 °FCool.9 mph58%30.06 "HgN/A
4:00 PM54 °FCool.9 mph57%30.06 "HgN/A
3:00 PM52 °FCool.12 mph61%30.08 "HgN/A
2:00 PM54 °FCool.16 mph54%30.08 "HgN/A
1:00 PM53 °FCool.9 mph56%30.09 "HgN/A
12:00 PM54 °FCool.6 mph48%30.10 "HgN/A
11:00 AM52 °FCool.3 mph56%30.10 "HgN/A
10:00 AM50 °FCool.6 mph55%30.09 "HgN/A
9:00 AM49 °FCool.3 mph69%30.08 "HgN/A
8:00 AM44 °FQuite cool.3 mph83%30.08 "HgN/A
7:00 AM39 °FChilly.2 mph86%30.07 "HgN/A
6:00 AM40 °FChilly.2 mph90%30.06 "HgN/A
5:00 AM39 °FChilly.1 mph91%30.04 "HgN/A
4:00 AM41 °FQuite cool.1 mph87%30.03 "HgN/A
Weather by CustomWeather, © 2014

See weather overview